Time,TemperatureF,DewpointF,PressureIn,WindDirection,WindDirectionDegrees,WindSpeedMPH,WindSpeedGustMPH,Humidity,HourlyPrecipIn,Conditions,Clouds,dailyrainin,SoftwareType,DateUTC
2013-03-11 00:02:00,61.0,42.0,29.98,South,189,11.0,-999.0,49,-99.99,,,-99.99,,2013-03-11 04:02:00,
2013-03-11 00:12:00,61.0,42.0,29.98,South,189,11.0,-999.0,49,-99.99,,,-99.99,,2013-03-11 04:12:00,
2013-03-11 00:22:00,61.0,43.0,29.98,SW,214,12.0,-999.0,51,-99.99,,,-99.99,,2013-03-11 04:22:00,
2013-03-11 00:32:00,61.0,43.0,29.98,South,187,10.0,-999.0,51,-99.99,,,-99.99,,2013-03-11 04:32:00,
2013-03-11 00:42:00,61.0,43.0,29.98,South,187,10.0,-999.0,51,-99.99,,,-99.99,,2013-03-11 04:42:00,
2013-03-11 00:53:00,61.0,43.0,29.98,South,172,11.0,-999.0,52,-99.99,,,-99.99,,2013-03-11 04:53:00,
2013-03-11 01:03:00,61.0,44.0,29.97,SSE,148,10.0,-999.0,53,-99.99,,,-99.99,,2013-03-11 05:03:00,
2013-03-11 01:12:00,61.0,44.0,29.97,SSE,148,10.0,-999.0,53,-99.99,,,-99.99,,2013-03-11 05:12:00,
2013-03-11 01:22:00,61.0,44.0,29.97,South,184,11.0,-999.0,54,-99.99,,,-99.99,,2013-03-11 05:22:00,
2013-03-11 01:32:00,60.0,44.0,29.96,South,187,13.0,-999.0,55,-99.99,,,-99.99,,2013-03-11 05:32:00,
2013-03-11 01:43:00,60.0,44.0,29.96,South,187,13.0,-999.0,55,-99.99,,,-99.99,,2013-03-11 05:43:00,
2013-03-11 01:52:00,60.0,44.0,29.96,SW,234,10.0,-999.0,56,-99.99,,,-99.99,,2013-03-11 05:52:00,
2013-03-11 02:02:00,60.0,45.0,29.97,South,186,9.0,-999.0,58,-99.99,,,-99.99,,2013-03-11 06:02:00,
2013-03-11 02:12:00,60.0,45.0,29.97,South,186,9.0,-999.0,58,-99.99,,,-99.99,,2013-03-11 06:12:00,
2013-03-11 02:22:00,60.0,46.0,29.96,South,175,11.0,-999.0,59,-99.99,,,-99.99,,2013-03-11 06:22:00,
2013-03-11 02:32:00,60.0,46.0,29.95,South,182,12.0,-999.0,60,-99.99,,,-99.99,,2013-03-11 06:32:00,
2013-03-11 02:42:00,60.0,46.0,29.95,South,182,12.0,-999.0,60,-99.99,,,-99.99,,2013-03-11 06:42:00,
2013-03-11 02:53:00,60.0,47.0,29.95,SSE,159,11.0,-999.0,61,-99.99,,,-99.99,,2013-03-11 06:53:00,
2013-03-11 03:03:00,60.0,47.0,29.96,SSW,192,12.0,-999.0,62,-99.99,,,-99.99,,2013-03-11 07:03:00,
2013-03-11 03:12:00,60.0,47.0,29.97,SSW,202,11.0,-999.0,63,-99.99,,,-99.99,,2013-03-11 07:12:00,
2013-03-11 03:22:00,60.0,47.0,29.97,SSW,202,11.0,-999.0,63,-99.99,,,-99.99,,2013-03-11 07:22:00,
2013-03-11 03:32:00,60.0,48.0,29.94,South,169,11.0,-999.0,65,-99.99,,,-99.99,,2013-03-11 07:32:00,
2013-03-11 03:42:00,60.0,48.0,29.94,South,169,11.0,-999.0,65,-99.99,,,-99.99,,2013-03-11 07:42:00,
2013-03-11 03:52:00,60.0,49.0,29.93,South,176,11.0,-999.0,67,-99.99,,,-99.99,,2013-03-11 07:52:00,
2013-03-11 04:02:00,60.0,49.0,29.93,South,182,10.0,-999.0,68,-99.99,,,-99.99,,2013-03-11 08:02:00,
2013-03-11 04:12:00,60.0,49.0,29.93,South,182,10.0,-999.0,68,-99.99,,,-99.99,,2013-03-11 08:12:00,
2013-03-11 04:22:00,60.0,50.0,29.92,SSE,167,12.0,-999.0,69,-99.99,,,-99.99,,2013-03-11 08:22:00,
2013-03-11 04:32:00,59.0,49.0,29.92,SSE,147,14.0,-999.0,69,-99.99,,,-99.99,,2013-03-11 08:32:00,
2013-03-11 04:42:00,59.0,49.0,29.92,SSE,147,14.0,-999.0,69,-99.99,,,-99.99,,2013-03-11 08:42:00,
2013-03-11 04:52:00,59.0,49.0,29.92,South,183,15.0,-999.0,70,-99.99,,,-99.99,,2013-03-11 08:52:00,
2013-03-11 05:02:00,59.0,50.0,29.92,South,176,13.0,-999.0,71,-99.99,,,-99.99,,2013-03-11 09:02:00,
2013-03-11 05:12:00,59.0,50.0,29.92,South,176,13.0,-999.0,71,-99.99,,,-99.99,,2013-03-11 09:12:00,
2013-03-11 05:23:00,59.0,50.0,29.91,SSE,157,12.0,-999.0,71,-99.99,,,-99.99,,2013-03-11 09:23:00,
2013-03-11 05:32:00,59.0,50.0,29.91,South,178,12.0,-999.0,72,-99.99,,,-99.99,,2013-03-11 09:32:00,
2013-03-11 05:42:00,59.0,50.0,29.91,South,178,12.0,-999.0,72,-99.99,,,-99.99,,2013-03-11 09:42:00,
2013-03-11 05:52:00,59.0,50.0,29.91,SSE,155,11.0,-999.0,72,-99.99,,,-99.99,,2013-03-11 09:52:00,
2013-03-11 06:02:00,59.0,50.0,29.91,SSE,159,12.0,-999.0,73,-99.99,,,-99.99,,2013-03-11 10:02:00,
2013-03-11 06:12:00,59.0,50.0,29.91,SSE,159,12.0,-999.0,73,-99.99,,,-99.99,,2013-03-11 10:12:00,
2013-03-11 06:22:00,59.0,50.0,29.92,South,171,12.0,-999.0,73,-99.99,,,-99.99,,2013-03-11 10:22:00,
2013-03-11 06:32:00,59.0,50.0,29.92,SE,146,12.0,-999.0,73,-99.99,,,-99.99,,2013-03-11 10:32:00,
2013-03-11 06:42:00,59.0,50.0,29.92,SE,146,12.0,-999.0,73,-99.99,,,-99.99,,2013-03-11 10:42:00,
2013-03-11 06:52:00,59.0,50.0,29.91,SSE,153,13.0,-999.0,73,-99.99,,,-99.99,,2013-03-11 10:52:00,
2013-03-11 07:02:00,59.0,51.0,29.91,SW,223,12.0,-999.0,74,-99.99,,,-99.99,,2013-03-11 11:02:00,
2013-03-11 07:12:00,59.0,51.0,29.91,SW,223,12.0,-999.0,74,-99.99,,,-99.99,,2013-03-11 11:12:00,
2013-03-11 07:22:00,59.0,51.0,29.90,SSE,167,13.0,-999.0,75,-99.99,,,-99.99,,2013-03-11 11:22:00,
2013-03-11 07:32:00,59.0,51.0,29.88,SSE,167,15.0,-999.0,75,-99.99,,,-99.99,,2013-03-11 11:32:00,
2013-03-11 07:42:00,59.0,51.0,29.88,SSE,167,15.0,-999.0,75,-99.99,,,-99.99,,2013-03-11 11:42:00,
2013-03-11 07:53:00,59.0,51.0,29.88,South,170,17.0,-999.0,75,-99.99,,,-99.99,,2013-03-11 11:53:00,
2013-03-11 08:02:00,59.0,51.0,29.88,SE,145,14.0,-999.0,75,-99.99,,,-99.99,,2013-03-11 12:02:00,
2013-03-11 08:12:00,59.0,51.0,29.88,SE,145,14.0,-999.0,75,-99.99,,,-99.99,,2013-03-11 12:12:00,
2013-03-11 08:22:00,58.0,50.0,29.89,SSE,161,16.0,-999.0,75,-99.99,,,-99.99,,2013-03-11 12:22:00,
2013-03-11 08:32:00,58.0,50.0,29.88,SSW,194,14.0,-999.0,75,-99.99,,,-99.99,,2013-03-11 12:32:00,
2013-03-11 08:43:00,58.0,50.0,29.88,SSW,194,14.0,-999.0,75,-99.99,,,-99.99,,2013-03-11 12:43:00,
2013-03-11 08:53:00,58.0,50.0,29.87,South,171,15.0,-999.0,76,-99.99,,,-99.99,,2013-03-11 12:53:00,
2013-03-11 09:02:00,58.0,50.0,29.86,SSE,149,17.0,-999.0,76,-99.99,,,-99.99,,2013-03-11 13:02:00,
2013-03-11 09:12:00,58.0,50.0,29.86,SSE,149,17.0,-999.0,76,-99.99,,,-99.99,,2013-03-11 13:12:00,
2013-03-11 09:22:00,59.0,51.0,29.85,SSW,192,16.0,-999.0,76,-99.99,,,-99.99,,2013-03-11 13:22:00,
2013-03-11 09:32:00,59.0,51.0,29.85,South,182,14.0,-999.0,76,-99.99,,,-99.99,,2013-03-11 13:32:00,
2013-03-11 09:42:00,59.0,51.0,29.85,South,182,14.0,-999.0,76,-99.99,,,-99.99,,2013-03-11 13:42:00,
2013-03-11 09:53:00,59.0,51.0,29.85,SSE,166,13.0,-999.0,76,-99.99,,,-99.99,,2013-03-11 13:53:00,
2013-03-11 10:02:00,59.0,51.0,29.85,SSE,160,14.0,-999.0,75,-99.99,,,-99.99,,2013-03-11 14:02:00,
2013-03-11 10:12:00,59.0,51.0,29.85,SSE,160,14.0,-999.0,75,-99.99,,,-99.99,,2013-03-11 14:12:00,
2013-03-11 10:22:00,59.0,51.0,29.85,SSW,202,17.0,-999.0,76,-99.99,,,-99.99,,2013-03-11 14:22:00,
2013-03-11 10:33:00,60.0,52.0,29.85,SSW,207,15.0,-999.0,75,-99.99,,,-99.99,,2013-03-11 14:33:00,
2013-03-11 10:42:00,60.0,52.0,29.85,SSW,207,15.0,-999.0,75,-99.99,,,-99.99,,2013-03-11 14:42:00,
2013-03-11 10:53:00,60.0,52.0,29.84,SSE,168,18.0,-999.0,75,-99.99,,,-99.99,,2013-03-11 14:53:00,
2013-03-11 11:03:00,60.0,52.0,29.83,SW,221,18.0,-999.0,75,-99.99,,,-99.99,,2013-03-11 15:03:00,
2013-03-11 11:13:00,60.0,52.0,29.83,SW,221,18.0,-999.0,75,-99.99,,,-99.99,,2013-03-11 15:13:00,
2013-03-11 11:22:00,60.0,52.0,29.85,SSW,202,13.0,-999.0,74,-99.99,,,-99.99,,2013-03-11 15:22:00,
2013-03-11 11:32:00,61.0,52.0,29.84,South,188,15.0,-999.0,73,-99.99,,,-99.99,,2013-03-11 15:32:00,
2013-03-11 11:42:00,61.0,52.0,29.84,South,188,15.0,-999.0,73,-99.99,,,-99.99,,2013-03-11 15:42:00,
2013-03-11 11:53:00,61.0,52.0,29.84,SSE,165,13.0,-999.0,73,-99.99,,,-99.99,,2013-03-11 15:53:00,
2013-03-11 12:02:00,61.0,52.0,29.86,South,169,16.0,-999.0,72,-99.99,,,-99.99,,2013-03-11 16:02:00,
2013-03-11 12:12:00,61.0,52.0,29.86,South,169,16.0,-999.0,72,-99.99,,,-99.99,,2013-03-11 16:12:00,
2013-03-11 12:22:00,62.0,52.0,29.85,South,171,16.0,-999.0,71,-99.99,,,-99.99,,2013-03-11 16:22:00,
2013-03-11 12:32:00,62.0,52.0,29.83,SSE,166,15.0,-999.0,71,-99.99,,,-99.99,,2013-03-11 16:32:00,
2013-03-11 12:43:00,62.0,52.0,29.83,SSE,166,15.0,-999.0,71,-99.99,,,-99.99,,2013-03-11 16:43:00,
2013-03-11 12:52:00,62.0,52.0,29.83,SSE,157,14.0,-999.0,71,-99.99,,,-99.99,,2013-03-11 16:52:00,
2013-03-11 13:02:00,62.0,52.0,29.81,South,173,14.0,-999.0,70,-99.99,,,-99.99,,2013-03-11 17:02:00,
2013-03-11 13:15:00,62.0,52.0,29.81,South,173,14.0,-999.0,70,-99.99,,,-99.99,,2013-03-11 17:15:00,
2013-03-11 13:42:00,63.0,52.0,29.79,SW,227,12.0,-999.0,68,-99.99,,,-99.99,,2013-03-11 17:42:00,
2013-03-11 13:53:00,63.0,53.0,29.80,WSW,248,12.0,-999.0,70,-99.99,,,-99.99,,2013-03-11 17:53:00,
2013-03-11 14:02:00,62.0,54.0,29.79,SW,215,7.0,-999.0,75,-99.99,,,-99.99,,2013-03-11 18:02:00,
2013-03-11 14:12:00,62.0,54.0,29.79,SW,215,7.0,-999.0,75,-99.99,,,-99.99,,2013-03-11 18:12:00,
2013-03-11 14:23:00,60.0,53.0,29.77,SSW,207,7.0,-999.0,78,-99.99,,,-99.99,,2013-03-11 18:23:00,
2013-03-11 14:32:00,59.0,53.0,29.79,SSW,196,6.0,-999.0,81,-99.99,,,-99.99,,2013-03-11 18:32:00,
2013-03-11 14:42:00,59.0,53.0,29.79,SSW,196,6.0,-999.0,81,-99.99,,,-99.99,,2013-03-11 18:42:00,
2013-03-11 14:53:00,58.0,53.0,29.80,SSW,205,5.0,-999.0,84,-99.99,,,-99.99,,2013-03-11 18:53:00,
2013-03-11 15:02:00,58.0,54.0,29.81,WSW,248,1.0,-999.0,86,-99.99,,,-99.99,,2013-03-11 19:02:00,
2013-03-11 15:12:00,58.0,54.0,29.81,WSW,248,1.0,-999.0,86,-99.99,,,-99.99,,2013-03-11 19:12:00,
2013-03-11 15:23:00,57.0,53.0,29.83,WSW,252,4.0,-999.0,88,-99.99,,,-99.99,,2013-03-11 19:23:00,
2013-03-11 15:33:00,56.0,52.0,29.81,SW,231,2.0,-999.0,88,-99.99,,,-99.99,,2013-03-11 19:33:00,
2013-03-11 15:42:00,56.0,52.0,29.81,SW,231,2.0,-999.0,88,-99.99,,,-99.99,,2013-03-11 19:42:00,
2013-03-11 15:53:00,55.0,52.0,29.81,South,191,3.0,-999.0,89,-99.99,,,-99.99,,2013-03-11 19:53:00,
2013-03-11 16:02:00,54.0,51.0,29.81,SSW,196,1.0,-999.0,90,-99.99,,,-99.99,,2013-03-11 20:02:00,
2013-03-11 16:12:00,54.0,51.0,29.81,SSW,196,1.0,-999.0,90,-99.99,,,-99.99,,2013-03-11 20:12:00,
2013-03-11 16:22:00,54.0,51.0,29.82,SSW,205,3.0,-999.0,91,-99.99,,,-99.99,,2013-03-11 20:22:00,
2013-03-11 16:32:00,54.0,51.0,29.82,SSW,206,1.0,-999.0,91,-99.99,,,-99.99,,2013-03-11 20:32:00,
2013-03-11 16:43:00,54.0,51.0,29.82,SSW,206,1.0,-999.0,91,-99.99,,,-99.99,,2013-03-11 20:43:00,
2013-03-11 16:53:00,54.0,52.0,29.82,SSW,209,0.0,-999.0,92,-99.99,,,-99.99,,2013-03-11 20:53:00,
2013-03-11 17:03:00,54.0,52.0,29.81,SSW,208,3.0,-999.0,92,-99.99,,,-99.99,,2013-03-11 21:03:00,
2013-03-11 17:13:00,54.0,52.0,29.81,SSW,208,3.0,-999.0,92,-99.99,,,-99.99,,2013-03-11 21:13:00,
2013-03-11 17:22:00,54.0,52.0,29.81,SSW,200,4.0,-999.0,92,-99.99,,,-99.99,,2013-03-11 21:22:00,
2013-03-11 17:32:00,53.0,51.0,29.80,SSE,167,4.0,-999.0,93,-99.99,,,-99.99,,2013-03-11 21:32:00,
2013-03-11 17:44:00,53.0,51.0,29.80,SSE,167,4.0,-999.0,93,-99.99,,,-99.99,,2013-03-11 21:44:00,
2013-03-11 17:53:00,53.0,51.0,29.79,SE,136,5.0,-999.0,93,-99.99,,,-99.99,,2013-03-11 21:53:00,
2013-03-11 18:03:00,53.0,51.0,29.75,ESE,121,11.0,-999.0,93,-99.99,,,-99.99,,2013-03-11 22:03:00,
2013-03-11 18:12:00,53.0,51.0,29.75,ESE,121,11.0,-999.0,93,-99.99,,,-99.99,,2013-03-11 22:12:00,
2013-03-11 18:22:00,53.0,51.0,29.73,SSW,209,4.0,-999.0,94,-99.99,,,-99.99,,2013-03-11 22:22:00,
2013-03-11 18:32:00,53.0,51.0,29.76,SSW,194,3.0,-999.0,94,-99.99,,,-99.99,,2013-03-11 22:32:00,
2013-03-11 18:43:00,53.0,51.0,29.76,SSW,194,3.0,-999.0,94,-99.99,,,-99.99,,2013-03-11 22:43:00,
2013-03-11 18:53:00,53.0,51.0,29.78,WSW,255,1.0,-999.0,94,-99.99,,,-99.99,,2013-03-11 22:53:00,
2013-03-11 19:03:00,53.0,51.0,29.77,WSW,255,0.0,-999.0,94,-99.99,,,-99.99,,2013-03-11 23:03:00,
2013-03-11 19:12:00,53.0,51.0,29.77,WSW,255,0.0,-999.0,94,-99.99,,,-99.99,,2013-03-11 23:12:00,
2013-03-11 19:22:00,53.0,51.0,29.78,WSW,252,1.0,-999.0,94,-99.99,,,-99.99,,2013-03-11 23:22:00,
2013-03-11 19:32:00,53.0,51.0,29.78,West,277,1.0,-999.0,94,-99.99,,,-99.99,,2013-03-11 23:32:00,
2013-03-11 19:43:00,53.0,51.0,29.78,West,277,1.0,-999.0,94,-99.99,,,-99.99,,2013-03-11 23:43:00,
2013-03-11 19:54:00,53.0,51.0,29.78,WSW,241,1.0,-999.0,94,-99.99,,,-99.99,,2013-03-11 23:54:00,
2013-03-11 20:02:00,53.0,51.0,29.79,West,269,1.0,-999.0,94,-99.99,,,-99.99,,2013-03-12 00:02:00,
2013-03-11 20:12:00,53.0,51.0,29.79,West,269,1.0,-999.0,94,-99.99,,,-99.99,,2013-03-12 00:12:00,
2013-03-11 20:23:00,53.0,52.0,29.80,WSW,240,2.0,-999.0,95,-99.99,,,-99.99,,2013-03-12 00:23:00,
2013-03-11 20:33:00,53.0,52.0,29.80,SW,234,2.0,-999.0,95,-99.99,,,-99.99,,2013-03-12 00:33:00,
2013-03-11 20:42:00,53.0,52.0,29.80,SW,234,2.0,-999.0,95,-99.99,,,-99.99,,2013-03-12 00:42:00,
2013-03-11 20:54:00,53.0,52.0,29.81,SW,228,2.0,-999.0,95,-99.99,,,-99.99,,2013-03-12 00:54:00,
2013-03-11 21:02:00,53.0,52.0,29.82,WNW,293,2.0,-999.0,95,-99.99,,,-99.99,,2013-03-12 01:02:00,
2013-03-11 21:12:00,53.0,52.0,29.82,WNW,293,2.0,-999.0,95,-99.99,,,-99.99,,2013-03-12 01:12:00,
2013-03-11 21:22:00,52.0,51.0,29.83,WNW,288,2.0,-999.0,95,-99.99,,,-99.99,,2013-03-12 01:22:00,
2013-03-11 21:33:00,51.0,49.0,29.83,West,271,1.0,-999.0,94,-99.99,,,-99.99,,2013-03-12 01:33:00,
2013-03-11 21:42:00,51.0,49.0,29.83,West,271,1.0,-999.0,94,-99.99,,,-99.99,,2013-03-12 01:42:00,
2013-03-11 21:53:00,51.0,49.0,29.83,WSW,252,1.0,-999.0,94,-99.99,,,-99.99,,2013-03-12 01:53:00,
2013-03-11 22:02:00,50.0,48.0,29.84,West,263,3.0,-999.0,94,-99.99,,,-99.99,,2013-03-12 02:02:00,
2013-03-11 22:12:00,50.0,48.0,29.84,West,263,3.0,-999.0,94,-99.99,,,-99.99,,2013-03-12 02:12:00,
2013-03-11 22:22:00,50.0,48.0,29.85,West,263,1.0,-999.0,94,-99.99,,,-99.99,,2013-03-12 02:22:00,
2013-03-11 22:32:00,49.0,47.0,29.85,West,265,0.0,-999.0,94,-99.99,,,-99.99,,2013-03-12 02:32:00,
2013-03-11 22:42:00,49.0,47.0,29.85,West,265,0.0,-999.0,94,-99.99,,,-99.99,,2013-03-12 02:42:00,
2013-03-11 22:52:00,49.0,47.0,29.85,West,277,0.0,-999.0,94,-99.99,,,-99.99,,2013-03-12 02:52:00,
2013-03-11 23:02:00,48.0,46.0,29.87,West,270,0.0,-999.0,94,-99.99,,,-99.99,,2013-03-12 03:02:00,
2013-03-11 23:12:00,48.0,46.0,29.87,West,270,0.0,-999.0,94,-99.99,,,-99.99,,2013-03-12 03:12:00,
2013-03-11 23:22:00,47.0,45.0,29.88,NW,308,1.0,-999.0,94,-99.99,,,-99.99,,2013-03-12 03:22:00,
2013-03-11 23:32:00,47.0,45.0,29.88,WNW,292,1.0,-999.0,94,-99.99,,,-99.99,,2013-03-12 03:32:00,
2013-03-11 23:42:00,47.0,45.0,29.88,WNW,292,1.0,-999.0,94,-99.99,,,-99.99,,2013-03-12 03:42:00,
2013-03-11 23:53:00,46.0,44.0,29.89,West,277,1.0,-999.0,93,-99.99,,,-99.99,,2013-03-12 03:53:00,